Total_Precipitation_Accumulation
0.04 0.06 0.10 0.16 0.18 0.21 0.25 0.34 0.40 0.43 0.41 0.49 0.59 0.71 0.96 1.16 1.40 1.46 1.55 1.83 2.07 2.30 2.45 2.78 3.13 3.46 3.96 4.05 3.94 4.02 4.21 4.45 4.61 4.91 5.02 5.29 5.60 5.79 5.96 5.92 5.70 5.74 5.76 5.86
0.08 0.10 0.11 0.15 0.15 0.17 0.26 0.42 0.46 0.44 0.41 0.51 0.70 0.87 1.07 1.29 1.43 1.41 1.54 1.73 1.94 2.36 2.69 2.89 3.08 3.50 4.02 4.26 4.31 4.35 4.54 4.88 5.11 5.40 5.87 6.15 6.44 6.69 6.89 6.94 6.48 6.22 6.09 5.98
0.08 0.10 0.10 0.12 0.13 0.15 0.21 0.30 0.40 0.46 0.49 0.58 0.81 1.20 1.41 1.55 1.62 1.74 1.95 2.12 2.23 2.47 2.85 2.93 3.01 3.42 3.78 4.03 4.21 4.43 4.69 5.17 5.74 6.12 6.54 6.87 7.10 7.14 6.94 6.64 6.58 6.38 6.21 6.09
0.10 0.07 0.08 0.11 0.14 0.17 0.20 0.23 0.33 0.40 0.56 0.70 0.85 1.56 1.94 1.95 1.94 2.15 2.34 2.35 2.43 2.54 2.74 2.89 3.02 3.32 3.67 3.97 4.16 4.53 5.09 5.82 6.37 6.77 7.30 7.81 7.93 7.65 7.30 6.85 6.39 6.13 5.90 5.62
0.12 0.10 0.12 0.13 0.15 0.17 0.19 0.20 0.28 0.34 0.45 0.65 0.90 1.45 2.32 2.37 2.34 2.50 2.65 2.43 2.43 2.35 2.42 2.68 2.84 3.07 3.58 3.89 4.14 4.51 5.13 5.90 6.61 7.40 8.01 8.43 8.28 7.89 7.46 6.76 6.17 5.71 5.35 5.00
0.12 0.10 0.11 0.10 0.11 0.15 0.15 0.20 0.29 0.36 0.49 0.79 0.86 1.31 2.13 2.44 2.58 2.69 2.59 2.32 2.23 2.14 2.17 2.31 2.51 2.87 3.40 3.69 3.87 4.24 4.90 5.69 6.35 6.93 7.44 7.69 7.56 7.35 6.80 6.11 5.48 5.08 4.78 4.44
0.20 0.19 0.13 0.09 0.10 0.16 0.19 0.29 0.62 0.85 0.99 1.01 0.79 1.16 1.91 2.15 2.28 2.23 2.22 2.24 2.07 2.11 2.05 2.08 2.25 2.54 2.97 3.12 3.46 3.85 4.32 5.00 5.44 5.75 6.12 6.33 6.44 6.23 5.88 5.38 4.91 4.49 4.03 3.67
0.34 0.33 0.17 0.11 0.11 0.19 0.22 0.28 0.71 1.07 1.10 1.10 1.07 1.56 2.12 2.05 1.95 1.92 1.87 1.91 1.97 2.09 2.10 2.10 2.27 2.48 2.75 2.93 3.07 3.21 3.50 3.90 4.07 4.12 4.36 4.65 4.71 4.67 4.52 4.23 3.85 3.57 3.23 2.87
0.45 0.35 0.18 0.12 0.11 0.16 0.23 0.24 0.36 0.69 0.79 1.21 1.51 1.99 2.49 2.21 2.05 2.01 1.93 1.80 1.77 1.84 1.94 2.11 2.23 2.26 2.27 2.31 2.38 2.48 2.65 2.81 2.88 2.97 3.06 3.22 3.26 3.25 3.20 3.07 2.80 2.59 2.44 2.16
0.39 0.35 0.19 0.14 0.13 0.17 0.21 0.28 0.43 0.80 1.25 1.53 1.78 2.46 3.06 2.81 2.36 2.04 1.81 1.60 1.56 1.65 1.78 1.96 2.11 2.10 2.09 2.00 2.05 2.13 2.23 2.30 2.31 2.37 2.38 2.33 2.37 2.38 2.39 2.27 2.14 2.08 2.00 1.87
0.36 0.39 0.25 0.20 0.25 0.26 0.30 0.37 0.53 0.83 1.01 1.52 2.05 2.82 2.86 3.04 2.85 2.34 2.01 1.84 1.75 1.69 1.77 1.96 1.98 1.93 1.95 1.90 1.92 1.98 1.97 1.99 1.97 1.93 1.97 1.96 1.88 1.90 1.97 1.96 1.85 1.83 1.78 1.65
0.36 0.49 0.46 0.33 0.28 0.26 0.29 0.37 0.56 1.09 1.24 1.30 1.99 3.01 2.73 2.97 3.09 2.76 2.50 2.35 2.24 2.04 1.91 1.91 1.85 1.80 1.75 1.80 1.84 1.91 1.86 1.81 1.86 1.75 1.69 1.69 1.74 1.71 1.73 1.71 1.60 1.59 1.64 1.57
0.41 0.63 1.02 0.97 0.76 0.48 0.39 0.39 0.47 0.66 1.08 1.42 2.08 3.22 3.13 2.97 3.02 2.93 2.67 2.55 2.59 2.46 2.31 2.13 1.93 1.86 1.81 1.77 1.73 1.64 1.65 1.64 1.68 1.69 1.64 1.59 1.64 1.68 1.67 1.61 1.59 1.55 1.59 1.57
0.36 0.66 1.25 1.65 1.24 0.79 0.58 0.45 0.47 0.65 1.20 1.46 1.87 2.62 2.97 2.99 2.98 2.98 3.07 3.03 3.00 2.74 2.52 2.37 2.13 2.05 1.96 1.86 1.78 1.68 1.65 1.53 1.51 1.54 1.57 1.61 1.65 1.69 1.69 1.70 1.70 1.63 1.53 1.47
0.51 0.93 0.91 0.82 0.73 0.66 0.58 0.56 0.55 0.61 0.78 1.21 1.67 2.17 2.68 2.83 2.91 3.15 3.32 3.25 3.00 2.60 2.38 2.34 2.28 2.24 2.16 1.97 1.87 1.74 1.64 1.51 1.48 1.44 1.48 1.55 1.60 1.63 1.58 1.63 1.64 1.61 1.59 1.47
0.61 0.95 0.94 0.82 0.66 0.72 0.72 0.76 0.77 0.75 0.83 1.15 1.64 2.38 2.68 2.84 3.04 3.13 3.16 3.26 3.21 2.79 2.50 2.39 2.29 2.21 2.23 2.07 1.93 1.79 1.70 1.65 1.59 1.54 1.50 1.47 1.49 1.47 1.45 1.45 1.48 1.43 1.41 1.42
0.67 0.99 1.35 1.24 0.76 1.01 1.40 1.24 1.08 1.07 1.12 1.35 1.80 2.21 2.35 2.53 2.71 2.99 3.21 3.24 3.36 3.04 2.70 2.49 2.41 2.30 2.25 2.28 2.21 2.05 1.87 1.76 1.53 1.45 1.41 1.33 1.30 1.29 1.32 1.29 1.31 1.35 1.43 1.42
0.60 1.03 1.31 1.34 1.47 1.99 1.67 1.15 1.04 1.18 1.30 1.31 1.54 1.67 1.94 2.21 2.41 2.71 2.98 3.30 3.46 3.21 2.91 2.65 2.47 2.36 2.31 2.29 2.21 1.99 1.83 1.64 1.47 1.41 1.36 1.25 1.18 1.18 1.28 1.24 1.26 1.33 1.36 1.34
0.50 1.00 1.44 1.64 2.00 2.04 1.68 1.15 1.03 1.38 1.67 1.32 1.37 1.45 1.54 1.68 1.95 2.52 2.58 2.75 3.07 3.10 2.94 2.75 2.52 2.39 2.33 2.18 2.07 1.93 1.68 1.56 1.48 1.37 1.31 1.17 1.11 1.17 1.20 1.15 1.17 1.27 1.25 1.25
0.61 0.93 1.48 1.73 2.23 2.48 2.01 1.07 0.79 1.22 2.19 1.55 1.40 1.53 1.56 1.78 2.21 2.27 2.06 2.13 2.34 2.55 2.62 2.54 2.33 2.19 2.18 2.04 1.92 1.92 1.78 1.57 1.47 1.36 1.29 1.18 1.16 1.18 1.20 1.22 1.20 1.18 1.16 1.14
1.11 1.28 1.56 1.81 2.20 2.23 1.29 0.85 1.03 2.10 2.51 1.70 1.41 1.55 1.78 2.11 2.12 1.75 1.56 1.70 1.88 1.99 2.13 2.16 2.13 2.11 2.01 1.82 1.79 1.96 2.06 1.84 1.50 1.37 1.31 1.30 1.30 1.25 1.23 1.27 1.24 1.18 1.08 1.09
1.29 1.56 1.72 1.91 2.38 2.38 1.11 0.94 1.60 1.92 1.48 1.32 1.35 1.40 1.46 1.50 1.40 1.31 1.35 1.49 1.54 1.65 1.76 1.90 2.05 2.02 1.97 1.85 1.80 1.81 1.87 1.82 1.63 1.51 1.47 1.39 1.30 1.22 1.19 1.29 1.23 1.18 1.21 1.18
1.23 1.49 1.67 1.91 2.26 1.79 1.12 1.04 1.08 1.08 1.18 1.19 1.28 1.30 1.22 1.21 1.22 1.19 1.27 1.45 1.55 1.58 1.67 1.76 1.85 1.87 1.85 1.75 1.77 1.78 1.71 1.56 1.54 1.65 1.59 1.46 1.31 1.24 1.25 1.31 1.26 1.17 1.24 1.18
1.27 1.05 1.20 1.44 1.53 1.38 1.25 1.07 0.98 1.01 1.05 1.09 1.17 1.20 1.16 1.18 1.13 1.14 1.27 1.42 1.49 1.46 1.50 1.60 1.71 1.76 1.73 1.59 1.57 1.58 1.50 1.50 1.55 1.56 1.50 1.47 1.39 1.25 1.20 1.19 1.15 1.12 1.13 1.18
1.28 1.13 1.27 1.50 1.50 1.44 1.43 1.28 1.15 1.18 1.15 1.11 1.16 1.22 1.20 1.18 1.20 1.16 1.27 1.29 1.32 1.35 1.37 1.44 1.63 1.70 1.60 1.45 1.35 1.30 1.41 1.52 1.60 1.50 1.34 1.30 1.24 1.17 1.15 1.10 1.03 0.99 0.92 0.94
1.18 1.24 1.36 1.58 1.45 1.44 1.41 1.26 1.20 1.37 1.43 1.31 1.26 1.22 1.14 1.13 1.21 1.11 1.11 1.11 1.12 1.18 1.26 1.37 1.43 1.49 1.43 1.34 1.29 1.21 1.29 1.40 1.45 1.37 1.28 1.21 1.12 1.06 0.99 0.97 0.97 0.99 0.90 0.81